#timestamp,LO_Frequency,Hit,StdDev 
1645074015.2,286046997.3,N
1645074035.9,286046999.5,N
1645074055.7,286046998.6,N
1645074075.6,286046999.6,N
1645074095.4,286046999.1,N
1645074115.2,286046996.8,N
1645074135.1,286046999.1,N
1645074136.0,286046999.1,N
1645074155.8,286046996.5,Y
1645074175.7,286047000.9,P
1645074195.5,286046998.6,N
1645074215.3,286046998.1,N
1645074235.2,286046999.9,N
1645074255.0,286047000.5,N
1645074255.9,286047000.5,N
1645074275.7,286047001.1,N
1645074295.6,286047000.1,N
1645074315.4,286047000.9,N
1645074335.3,286046999.7,N
1645074355.1,286047000.5,N
1645074356.0,286047000.5,N
1645074375.8,286047000.4,N
1645074395.7,286047001.1,N
1645074415.5,286047002.2,N
1645074435.4,286047004.3,Y
1645074455.2,286047000.1,P
1645074475.0,286047000.3,P
1645074475.9,286047000.3,P
1645074495.8,286047000.6,Y
1645074515.6,286047001.1,P
1645074535.4,286047000.7,N
1645074555.3,286047000.0,N
1645074575.1,286047001.4,Y
1645074595.9,286047002.0,P
1645074615.7,286046999.8,N
1645074635.6,286047000.6,N
1645074655.4,286047001.2,N
1645074675.2,286046998.2,N
1645074695.1,286046998.6,N
1645074696.0,286046998.6,N
1645074715.8,286046999.2,N
1645074735.6,286047001.2,N
1645074755.5,286047000.1,N
1645074775.3,286047000.5,N
1645074795.2,286047000.2,N
1645074815.0,286047000.0,N
1645074815.9,286047000.0,N
1645074835.8,286047002.4,N
1645074855.6,286046999.8,N
1645074875.4,286047002.3,N
1645074895.3,286047002.8,N
1645074915.1,286047000.1,N
1645074935.9,286047003.8,Y
1645074955.7,286047001.8,P
1645074975.5,286047001.8,N
1645074995.4,286047002.2,P
1645075015.2,286047004.0,Y
1645075035.1,286047000.2,P
1645075036.0,286047000.2,N
1645075055.8,286047002.8,P
1645075075.6,286047000.3,N
1645075095.5,286047001.1,N
1645075115.3,286046999.2,N
1645075135.1,286046996.7,Y
1645075155.9,286046996.8,P
1645075175.7,286046997.2,N
1645075195.6,286046996.9,N
1645075215.4,286046997.5,N
1645075235.2,286046996.9,N
1645075255.1,286046999.4,N
1645075256.0,286046999.4,N
1645075275.8,286046998.6,N
1645075295.7,286046999.3,N
1645075315.5,286047001.0,N
1645075335.3,286047001.1,N
1645075355.2,286046998.9,N
1645075375.0,286046998.9,N
1645075375.9,286046998.9,N
1645075395.7,286046998.3,N
1645075415.6,286046996.8,N
1645075435.4,286046997.1,N
1645075455.3,286046998.8,N
1645075475.1,286046998.3,N
1645075495.8,286046999.2,N
1645075515.7,286046997.8,N
1645075535.5,286046997.9,N
1645075555.4,286046995.3,Y
1645075575.2,286046999.0,P
1645075595.0,286046998.3,P
1645075595.9,286046998.3,P
1645075615.8,286047000.7,N
1645075635.6,286047000.3,N
1645075655.4,286047000.4,N
1645075675.3,286047000.2,N
1645075695.1,286047001.1,N
1645075715.9,286047001.1,N
1645075735.7,286046998.7,N
1645075755.5,286046998.6,N
1645075775.4,286046998.5,N
1645075795.2,286046998.8,N
1645075815.1,286046996.6,Y
1645075816.0,286046996.6,P
1645075835.8,286046998.7,N
1645075855.6,286046999.1,N
1645075875.5,286046997.0,N
1645075895.3,286046996.5,Y
1645075915.2,286047000.1,P
1645075935.0,286047002.7,N
1645075935.9,286047002.7,N
1645075955.7,286047001.0,N
1645075975.6,286046998.6,N
1645075995.4,286046998.9,N
1645076015.3,286046999.6,N
1645076035.1,286046998.6,N
1645076055.8,286046998.2,N
1645076075.7,286046999.8,N
1645076095.5,286047000.4,N
1645076115.4,286047002.8,N
1645076135.2,286047000.3,N
1645076155.0,286047000.6,N
1645076155.9,286047000.6,N
1645076175.8,286047002.3,N
1645076195.6,286047004.1,N
1645076215.4,286047002.1,N
1645076235.3,286046999.9,N
1645076255.1,286047000.8,N
1645076275.9,286046998.1,N
1645076295.7,286046999.8,N
1645076315.5,286046998.8,N
1645076335.4,286047001.0,N
1645076355.2,286047001.1,N
1645076375.0,286046998.6,N
1645076376.0,286046998.6,N
1645076395.8,286046999.1,N
1645076415.6,286047000.7,N
1645076435.5,286047000.2,N
1645076455.3,286046999.9,N
1645076475.1,286046998.4,N
1645076495.9,286047001.2,N
1645076515.7,286047000.4,N
1645076535.6,286046998.6,N
1645076555.4,286046998.9,N
1645076575.2,286047001.0,N
1645076595.1,286047001.2,N
1645076596.0,286047001.2,N
1645076615.8,286046998.1,N
1645076635.6,286046999.9,N
1645076655.5,286047000.2,N
1645076675.3,286047002.4,N
1645076695.2,286047001.6,N
1645076715.9,286047003.2,N
1645076735.7,286047003.5,N
1645076755.6,286047003.2,N
1645076775.4,286047002.7,N
1645076795.3,286047001.5,N
1645076815.1,286047002.8,N
1645076816.0,286047002.8,N
1645076835.8,286047000.1,N
1645076855.7,286047001.9,N
1645076875.5,286047000.2,N
1645076895.4,286047000.5,N
1645076915.2,286047000.8,N
1645076935.0,286047000.6,N
1645076935.9,286047000.6,N
1645076955.8,286046999.8,N
1645076975.6,286046999.7,N
1645076995.4,286046999.8,N
1645077015.3,286047001.3,N
1645077035.1,286047001.4,N
1645077055.9,286047004.0,N
1645077075.7,286047001.5,N
1645077095.5,286047002.1,N
1645077115.4,286047002.1,N
1645077135.2,286047001.8,N
1645077155.1,286047001.7,N
1645077156.0,286047001.7,N
1645077175.8,286047003.6,N
1645077195.6,286047003.6,N
1645077215.5,286047001.5,N
1645077235.3,286047001.3,N
1645077255.1,286047004.2,Y
1645077275.9,286047002.4,P
1645077295.7,286047002.6,P
1645077315.6,286047003.0,P
1645077335.4,286047003.6,Y
1645077355.2,286047002.4,P
1645077375.1,286046998.1,P
1645077376.0,286046998.1,N
1645077395.8,286047001.2,N
1645077415.7,286047001.3,N
1645077435.5,286047001.3,N
1645077455.3,286046999.7,N
1645077475.2,286047000.1,N
1645077495.0,286047002.1,N
1645077495.9,286047002.1,N
1645077515.8,286047002.7,N
1645077535.6,286047000.4,N
1645077555.4,286047000.0,N
1645077575.3,286046996.7,N
1645077595.1,286046996.8,N
